Home   Weather   Farah   Past weeks
Flag for Afghanistan

Past Weather in Farah, Afghanistan — Yesterday and Last 2 Weeks

Now
59 °F

Clear.


Feels Like: 58 °F
Forecast: 77 / 54 °F
Wind: 7 mph from West

Location: Zabol Airport

Current Time: Mar 22, 2019 at 3:18:03 am

Latest Report: Mar 22, 2019 at 1:30 am


Visibility: 10 mi

Pressure: 29.89 "Hg (27.65 "Hg at 658m altitude)

Humidity: 48%

Dew Point: 39 °F

Location of FarahLocation

Past Weather in Farah — Graph

°F

Farah Temperature Yesterday

Maximum temperature yesterday: 84 °F (at 3:30 pm)
Minimum temperature yesterday: 50 °F (at 4:30 am)
Average temperature yesterday: 68 °F

High & Low Weather Summary for the Past Weeks

 TemperatureHumidityPressure
High84 °F (Mar 16, 4:30 pm)87% (Mar 8, 6:30 am)30.18 "Hg (Mar 8, 6:30 am)
Low37 °F (Mar 8, 6:30 am)12% (Mar 18, 5:30 pm)29.62 "Hg (Mar 18, 3:30 pm)
Average64 °F43%29.98 "Hg
* Reported Mar 7 1:30 am — Mar 22 1:30 am, Farah. Weather by CustomWeather, © 2019

Note: Actual official high and low records may vary slightly from our data, if they occured in-between our weather recording intervals... More about our weather records

Advertising

Farah Weather History for the Previous 24 Hours

Scroll right to see more
 ConditionsComfort  
Time TempWeatherWind HumidityBarometerVisibility
1:30 am
Fri, Mar 22
59 °FClear.7 mph48%29.89 "Hg10 mi
12:30 am61 °FClear.5 mph45%29.89 "Hg10 mi
11:30 pm
Thu, Mar 21
64 °FClear.7 mph40%29.89 "Hg10 mi
10:30 pm64 °FClear.7 mph37%29.89 "Hg10 mi
9:30 pm64 °FClear.5 mph37%29.89 "Hg10 mi
8:30 pm68 °FClear.5 mph35%29.86 "Hg10 mi
7:30 pm73 °FClear.7 mph27%29.86 "Hg10 mi
6:30 pm79 °FSunny.5 mph21%29.83 "Hg10 mi
5:30 pm81 °FSunny.5 mph20%29.80 "Hg10 mi
4:30 pm84 °FSunny.7 mph18%29.80 "Hg10 mi
3:30 pm84 °FSunny.9 mph16%29.83 "Hg10 mi
2:30 pm82 °FSunny.12 mph16%29.86 "Hg10 mi
1:30 pm81 °FSunny.7 mph18%29.89 "Hg10 mi
12:30 pm77 °FSunny.7 mph24%29.92 "Hg10 mi
11:30 am72 °FSunny.9 mph29%29.95 "Hg10 mi
10:30 am68 °FSunny.14 mph33%29.98 "Hg10 mi
9:30 am64 °FSunny.14 mph37%29.98 "Hg10 mi
8:30 am59 °FSunny.14 mph45%30.01 "Hg10 mi
7:30 am50 °FSunny.9 mph58%29.98 "Hg10 mi
6:30 am50 °FClear.9 mph58%29.95 "Hg10 mi
4:30 am50 °FClear.12 mph58%29.95 "Hg10 mi
Weather by CustomWeather, © 2019

See weather overview